Snow/Ice From: 16-12-2017 16:00 Until: 17-12-2017 16:00 warning for: Snow/Ice Level: Yellow info button

Although rather usual in this region, locally or potentially dangerous phenomena are expected. (such as local winds, summer thunderstorms, rising streams or high waves) Be aware and pay attention to the latest weather updates, especially if you carry out activities exposed to weather or close to a stream or shoreline. 


Meteo18 Weather Cam more information Meteo18 Weather Cam


Thunder radar more information blitzortung!


warning for Snow/Ice more information rain snow radar


Visit our other weather sites:

Template documentation
and downloads

And another site



Weather Underground History page Text

Daily Summary for July 13, 2017 Units:  Metric    English   Both
« Previous Day
Next Day »
Daily Weekly Monthly Yearly Custom
  High: Low: Average:
Temperature: 25.2 °C 17.2 °C 20.5 °C
Dew Point: 16.8 °C 14.0 °C 15.6 °C
Humidity: 94 % 52 % 76 %
Wind Speed: 20.9 km/h 0.0 km/h 4.6 km/h
Wind Gust: 27.4 km/h - -
Wind:- - WSW
Pressure: 1022.2 hPa 1019.2 hPa -
Precipitation: 0.0 mm    
Historical Graphs
 
 
Tabular Data for July 13, 2017
Time Temperature Dew Point Pressure Wind Wind Speed Wind Gust Humidity Rainfall Rate (Hourly)
00:02 18.0 °C 16.2 °C 1022.2 hPa WSW 3.2 km/h 6.4 km/h 89 % 0.0 mm
00:12 17.9 °C 16.2 °C 1022.2 hPa SSW 1.6 km/h 6.4 km/h 90 % 0.0 mm
00:22 17.6 °C 16.1 °C 1022.2 hPa SW 4.8 km/h 6.4 km/h 91 % 0.0 mm
00:32 17.6 °C 16.1 °C 1022.2 hPa SW 3.2 km/h 6.4 km/h 91 % 0.0 mm
00:42 17.4 °C 16.1 °C 1022.2 hPa SW 6.4 km/h 6.4 km/h 92 % 0.0 mm
00:47 17.5 °C 16.2 °C 1022.2 hPa WSW 1.6 km/h 8.0 km/h 92 % 0.0 mm
00:52 17.5 °C 16.2 °C 1022.2 hPa SW 6.4 km/h 9.7 km/h 92 % 0.0 mm
00:57 17.6 °C 16.3 °C 1022.2 hPa Calm   9.7 km/h 92 % 0.0 mm
01:02 17.5 °C 16.2 °C 1022.2 hPa WSW 1.6 km/h 9.7 km/h 92 % 0.0 mm
01:12 17.5 °C 16.2 °C 1022.2 hPa Calm   6.4 km/h 92 % 0.0 mm
01:17 17.5 °C 16.4 °C 1022.2 hPa WSW 1.6 km/h 6.4 km/h 93 % 0.0 mm
01:22 17.5 °C 16.4 °C 1022.2 hPa West 1.6 km/h 6.4 km/h 93 % 0.0 mm
01:27 17.5 °C 16.4 °C 1022.2 hPa West 3.2 km/h 6.4 km/h 93 % 0.0 mm
01:32 17.5 °C 16.4 °C 1021.9 hPa WSW 1.6 km/h 6.4 km/h 93 % 0.0 mm
01:37 17.5 °C 16.4 °C 1021.9 hPa West 1.6 km/h 6.4 km/h 93 % 0.0 mm
01:42 17.5 °C 16.4 °C 1021.9 hPa WSW 1.6 km/h 6.4 km/h 93 % 0.0 mm
01:52 17.5 °C 16.4 °C 1021.9 hPa WSW 3.2 km/h 6.4 km/h 93 % 0.0 mm
01:57 17.6 °C 16.5 °C 1021.9 hPa WSW 1.6 km/h 6.4 km/h 93 % 0.0 mm
02:02 17.6 °C 16.5 °C 1021.9 hPa WSW 6.4 km/h 6.4 km/h 93 % 0.0 mm
02:07 17.6 °C 16.5 °C 1021.9 hPa SSW 4.8 km/h 8.0 km/h 93 % 0.0 mm
02:12 17.6 °C 16.5 °C 1021.9 hPa WSW 3.2 km/h 8.0 km/h 93 % 0.0 mm
02:17 17.6 °C 16.5 °C 1021.9 hPa SW 3.2 km/h 8.0 km/h 93 % 0.0 mm
02:22 17.5 °C 16.4 °C 1021.9 hPa SW 3.2 km/h 8.0 km/h 93 % 0.0 mm
02:32 17.4 °C 16.3 °C 1021.9 hPa SW 3.2 km/h 4.8 km/h 93 % 0.0 mm
02:37 17.4 °C 16.3 °C 1021.9 hPa SW 3.2 km/h 8.0 km/h 93 % 0.0 mm
02:42 17.4 °C 16.3 °C 1021.9 hPa SW 1.6 km/h 8.0 km/h 93 % 0.0 mm
02:47 17.4 °C 16.3 °C 1021.9 hPa WSW 3.2 km/h 8.0 km/h 93 % 0.0 mm
02:52 17.3 °C 16.2 °C 1021.9 hPa Calm   8.0 km/h 93 % 0.0 mm
02:57 17.3 °C 16.2 °C 1021.9 hPa Calm   4.8 km/h 93 % 0.0 mm
03:02 17.3 °C 16.2 °C 1021.9 hPa Calm   4.8 km/h 93 % 0.0 mm
03:07 17.3 °C 16.2 °C 1021.9 hPa Calm   1.6 km/h 93 % 0.0 mm
03:12 17.3 °C 16.3 °C 1021.9 hPa Calm   6.4 km/h 94 % 0.0 mm
03:17 17.3 °C 16.2 °C 1021.9 hPa Calm   6.4 km/h 93 % 0.0 mm
03:22 17.4 °C 16.3 °C 1021.9 hPa West 1.6 km/h 6.4 km/h 93 % 0.0 mm
03:32 17.4 °C 16.3 °C 1021.6 hPa WSW 1.6 km/h 3.2 km/h 93 % 0.0 mm
03:37 17.5 °C 16.4 °C 1021.6 hPa WNW 3.2 km/h 4.8 km/h 93 % 0.0 mm
03:42 17.5 °C 16.4 °C 1021.6 hPa West 1.6 km/h 6.4 km/h 93 % 0.0 mm
03:47 17.5 °C 16.4 °C 1021.6 hPa WSW 3.2 km/h 6.4 km/h 93 % 0.0 mm
03:52 17.4 °C 16.3 °C 1021.6 hPa West 1.6 km/h 6.4 km/h 93 % 0.0 mm
03:57 17.4 °C 16.3 °C 1021.6 hPa West 1.6 km/h 4.8 km/h 93 % 0.0 mm
04:02 17.4 °C 16.3 °C 1021.6 hPa Calm   4.8 km/h 93 % 0.0 mm
04:12 17.4 °C 16.3 °C 1021.6 hPa Calm   3.2 km/h 93 % 0.0 mm
04:17 17.4 °C 16.3 °C 1021.6 hPa Calm   3.2 km/h 93 % 0.0 mm
04:22 17.4 °C 16.3 °C 1021.6 hPa West 1.6 km/h 3.2 km/h 93 % 0.0 mm
04:27 17.4 °C 16.1 °C 1021.6 hPa West 1.6 km/h 4.8 km/h 92 % 0.0 mm
04:32 17.4 °C 16.1 °C 1021.6 hPa SW 1.6 km/h 4.8 km/h 92 % 0.0 mm
04:37 17.4 °C 16.1 °C 1021.6 hPa Calm   4.8 km/h 92 % 0.0 mm
04:42 17.4 °C 16.1 °C 1021.6 hPa Calm   4.8 km/h 92 % 0.0 mm
04:47 17.4 °C 16.1 °C 1021.6 hPa Calm   3.2 km/h 92 % 0.0 mm
04:52 17.4 °C 16.1 °C 1021.6 hPa Calm   3.2 km/h 92 % 0.0 mm
04:57 17.4 °C 16.1 °C 1021.6 hPa Calm   1.6 km/h 92 % 0.0 mm
05:02 17.4 °C 16.1 °C 1021.6 hPa Calm   1.6 km/h 92 % 0.0 mm
05:07 17.4 °C 16.1 °C 1021.6 hPa WSW 3.2 km/h 3.2 km/h 92 % 0.0 mm
05:12 17.4 °C 16.1 °C 1021.6 hPa West 3.2 km/h 4.8 km/h 92 % 0.0 mm
05:17 17.4 °C 16.1 °C 1021.6 hPa WSW 1.6 km/h 4.8 km/h 92 % 0.0 mm
05:27 17.4 °C 16.1 °C 1021.6 hPa SW 3.2 km/h 4.8 km/h 92 % 0.0 mm
05:32 17.4 °C 16.1 °C 1021.6 hPa WSW 3.2 km/h 4.8 km/h 92 % 0.0 mm
05:37 17.4 °C 16.1 °C 1021.6 hPa West 1.6 km/h 6.4 km/h 92 % 0.0 mm
05:42 17.4 °C 16.1 °C 1021.6 hPa West 1.6 km/h 6.4 km/h 92 % 0.0 mm
05:47 17.4 °C 15.9 °C 1021.6 hPa SW 4.8 km/h 6.4 km/h 91 % 0.0 mm
05:52 17.4 °C 15.9 °C 1021.6 hPa WSW 1.6 km/h 4.8 km/h 91 % 0.0 mm
05:57 17.4 °C 15.9 °C 1021.6 hPa Calm   4.8 km/h 91 % 0.0 mm
06:02 17.4 °C 15.9 °C 1021.6 hPa Calm   6.4 km/h 91 % 0.0 mm
06:07 17.3 °C 15.8 °C 1021.6 hPa Calm   6.4 km/h 91 % 0.0 mm
06:12 17.3 °C 15.8 °C 1021.6 hPa Calm   6.4 km/h 91 % 0.0 mm
06:17 17.3 °C 15.8 °C 1021.6 hPa Calm   4.8 km/h 91 % 0.0 mm
06:22 17.3 °C 15.8 °C 1021.6 hPa WSW 4.8 km/h 6.4 km/h 91 % 0.0 mm
06:32 17.3 °C 15.8 °C 1021.6 hPa Calm   8.0 km/h 91 % 0.0 mm
06:37 17.2 °C 15.9 °C 1021.6 hPa WSW 1.6 km/h 8.0 km/h 92 % 0.0 mm
06:42 17.2 °C 15.9 °C 1021.6 hPa SW 3.2 km/h 6.4 km/h 92 % 0.0 mm
06:47 17.2 °C 15.9 °C 1021.6 hPa WSW 1.6 km/h 6.4 km/h 92 % 0.0 mm
06:52 17.2 °C 15.9 °C 1021.6 hPa Calm   8.0 km/h 92 % 0.0 mm
06:57 17.2 °C 15.9 °C 1021.6 hPa SW 1.6 km/h 8.0 km/h 92 % 0.0 mm
07:02 17.2 °C 15.9 °C 1021.6 hPa WNW 3.2 km/h 8.0 km/h 92 % 0.0 mm
07:07 17.2 °C 15.9 °C 1021.6 hPa West 1.6 km/h 8.0 km/h 92 % 0.0 mm
07:12 17.3 °C 16.0 °C 1021.9 hPa Calm   6.4 km/h 92 % 0.0 mm
07:17 17.3 °C 16.0 °C 1021.6 hPa Calm   6.4 km/h 92 % 0.0 mm
07:22 17.3 °C 16.0 °C 1021.6 hPa Calm   4.8 km/h 92 % 0.0 mm
07:27 17.3 °C 16.0 °C 1021.6 hPa Calm   3.2 km/h 92 % 0.0 mm
07:32 17.3 °C 16.0 °C 1021.6 hPa Calm     92 % 0.0 mm
07:37 17.3 °C 16.0 °C 1021.6 hPa Calm     92 % 0.0 mm
07:42 17.4 °C 16.1 °C 1021.6 hPa Calm     92 % 0.0 mm
07:47 17.4 °C 16.1 °C 1021.9 hPa West 1.6 km/h   92 % 0.0 mm
07:52 17.4 °C 15.9 °C 1021.6 hPa West 3.2 km/h 6.4 km/h 91 % 0.0 mm
07:57 17.5 °C 16.0 °C 1021.9 hPa WNW 4.8 km/h 6.4 km/h 91 % 0.0 mm
08:02 17.6 °C 16.1 °C 1021.9 hPa WSW 3.2 km/h 6.4 km/h 91 % 0.0 mm
08:12 17.6 °C 16.1 °C 1021.9 hPa West 1.6 km/h 6.4 km/h 91 % 0.0 mm
08:22 17.8 °C 16.1 °C 1021.9 hPa WNW 3.2 km/h 8.0 km/h 90 % 0.0 mm
08:32 17.9 °C 16.2 °C 1021.9 hPa West 1.6 km/h 8.0 km/h 90 % 0.0 mm
08:37 17.9 °C 16.1 °C 1021.9 hPa West 3.2 km/h 8.0 km/h 89 % 0.0 mm
08:42 18.0 °C 16.2 °C 1021.9 hPa West 3.2 km/h 6.4 km/h 89 % 0.0 mm
08:47 18.1 °C 16.3 °C 1021.9 hPa WSW 4.8 km/h 8.0 km/h 89 % 0.0 mm
08:52 18.1 °C 16.1 °C 1021.9 hPa West 4.8 km/h 8.0 km/h 88 % 0.0 mm
08:57 18.3 °C 16.3 °C 1021.9 hPa WNW 6.4 km/h 8.0 km/h 88 % 0.0 mm
09:02 18.3 °C 16.3 °C 1021.9 hPa Calm   8.0 km/h 88 % 0.0 mm
09:07 18.4 °C 16.2 °C 1021.9 hPa WNW 4.8 km/h 8.0 km/h 87 % 0.0 mm
09:12 18.3 °C 15.9 °C 1021.9 hPa SW 8.0 km/h 8.0 km/h 86 % 0.0 mm
09:17 18.4 °C 16.2 °C 1021.9 hPa WNW 4.8 km/h 9.7 km/h 87 % 0.0 mm
09:22 18.5 °C 16.3 °C 1022.2 hPa WNW 4.8 km/h 9.7 km/h 87 % 0.0 mm
09:27 18.4 °C 16.0 °C 1022.2 hPa West 8.0 km/h 9.7 km/h 86 % 0.0 mm
09:37 18.6 °C 16.2 °C 1021.9 hPa West 4.8 km/h 8.0 km/h 86 % 0.0 mm
09:42 18.7 °C 16.3 °C 1021.9 hPa SW 4.8 km/h 8.0 km/h 86 % 0.0 mm
09:47 18.7 °C 16.3 °C 1021.9 hPa West 4.8 km/h 11.3 km/h 86 % 0.0 mm
09:52 18.8 °C 16.4 °C 1021.9 hPa WSW 4.8 km/h 11.3 km/h 86 % 0.0 mm
09:57 18.9 °C 16.3 °C 1021.9 hPa West 6.4 km/h 11.3 km/h 85 % 0.0 mm
10:02 19.0 °C 16.4 °C 1021.9 hPa West 3.2 km/h 11.3 km/h 85 % 0.0 mm
10:07 19.2 °C 16.6 °C 1021.9 hPa NW 1.6 km/h 9.7 km/h 85 % 0.0 mm
10:12 19.2 °C 16.4 °C 1021.9 hPa SSW 4.8 km/h 9.7 km/h 84 % 0.0 mm
10:17 19.3 °C 16.7 °C 1021.9 hPa SW 3.2 km/h 9.7 km/h 85 % 0.0 mm
10:22 19.5 °C 16.7 °C 1021.9 hPa SSW 1.6 km/h 9.7 km/h 84 % 0.0 mm
10:32 19.6 °C 16.8 °C 1021.9 hPa Calm   11.3 km/h 84 % 0.0 mm
10:37 19.8 °C 16.6 °C 1021.9 hPa West 4.8 km/h 11.3 km/h 82 % 0.0 mm
10:42 20.1 °C 16.3 °C 1021.9 hPa WNW 4.8 km/h 11.3 km/h 79 % 0.0 mm
10:47 20.2 °C 16.0 °C 1021.9 hPa West 6.4 km/h 12.9 km/h 77 % 0.0 mm
10:52 20.5 °C 16.5 °C 1021.6 hPa Calm   12.9 km/h 78 % 0.0 mm
10:57 20.6 °C 16.2 °C 1021.6 hPa West 3.2 km/h 12.9 km/h 76 % 0.0 mm
11:02 20.8 °C 16.6 °C 1021.6 hPa SW 11.3 km/h 12.9 km/h 77 % 0.0 mm
11:12 20.7 °C 16.1 °C 1021.6 hPa WSW 4.8 km/h 12.9 km/h 75 % 0.0 mm
11:17 20.7 °C 15.9 °C 1021.6 hPa WNW 3.2 km/h 12.9 km/h 74 % 0.0 mm
11:22 21.1 °C 16.3 °C 1021.6 hPa Calm   12.9 km/h 74 % 0.0 mm
11:32 21.5 °C 15.8 °C 1021.6 hPa WNW 1.6 km/h 9.7 km/h 70 % 0.0 mm
11:37 21.6 °C 15.2 °C 1021.6 hPa WSW 8.0 km/h 12.9 km/h 67 % 0.0 mm
11:42 22.0 °C 16.3 °C 1021.2 hPa WSW 6.4 km/h 12.9 km/h 70 % 0.0 mm
11:47 22.3 °C 15.4 °C 1021.2 hPa SW 4.8 km/h 12.9 km/h 65 % 0.0 mm
11:52 22.3 °C 15.2 °C 1021.2 hPa West 9.7 km/h 12.9 km/h 64 % 0.0 mm
11:57 22.0 °C 14.9 °C 1021.2 hPa WSW 4.8 km/h 14.5 km/h 64 % 0.0 mm
12:02 21.9 °C 15.0 °C 1021.2 hPa SSW 6.4 km/h 14.5 km/h 65 % 0.0 mm
12:12 21.6 °C 15.2 °C 1021.2 hPa West 3.2 km/h 14.5 km/h 67 % 0.0 mm
12:17 21.6 °C 15.0 °C 1021.2 hPa SW 8.0 km/h 14.5 km/h 66 % 0.0 mm
12:22 21.6 °C 15.4 °C 1021.2 hPa SW 1.6 km/h 12.9 km/h 68 % 0.0 mm
12:27 21.7 °C 15.8 °C 1021.2 hPa Calm   12.9 km/h 69 % 0.0 mm
12:32 21.9 °C 15.3 °C 1021.2 hPa West 4.8 km/h 12.9 km/h 66 % 0.0 mm
12:42 22.1 °C 15.7 °C 1020.9 hPa WSW 12.9 km/h 14.5 km/h 67 % 0.0 mm
12:47 21.9 °C 15.7 °C 1021.2 hPa SW 1.6 km/h 14.5 km/h 68 % 0.0 mm
12:52 21.9 °C 15.7 °C 1020.9 hPa WSW 8.0 km/h 16.1 km/h 68 % 0.0 mm
12:57 22.1 °C 15.9 °C 1020.9 hPa West 12.9 km/h 16.1 km/h 68 % 0.0 mm
13:02 22.0 °C 15.6 °C 1021.2 hPa SW 12.9 km/h 16.1 km/h 67 % 0.0 mm
13:12 22.2 °C 16.0 °C 1020.9 hPa SSW 6.4 km/h 17.7 km/h 68 % 0.0 mm
13:17 22.5 °C 16.1 °C 1020.9 hPa WNW 8.0 km/h 17.7 km/h 67 % 0.0 mm
13:22 22.9 °C 16.2 °C 1020.9 hPa SSW 4.8 km/h 17.7 km/h 66 % 0.0 mm
13:32 23.3 °C 15.6 °C 1020.9 hPa WSW 9.7 km/h 17.7 km/h 62 % 0.0 mm
13:37 23.4 °C 16.2 °C 1020.9 hPa SW 12.9 km/h 17.7 km/h 64 % 0.0 mm
13:47 23.1 °C 15.7 °C 1020.9 hPa SW 1.6 km/h 19.3 km/h 63 % 0.0 mm
13:52 22.9 °C 15.0 °C 1020.9 hPa SSW 6.4 km/h 19.3 km/h 61 % 0.0 mm
13:57 23.0 °C 15.6 °C 1020.9 hPa WSW 8.0 km/h 14.5 km/h 63 % 0.0 mm
14:02 23.2 °C 16.3 °C 1020.9 hPa SW 11.3 km/h 16.1 km/h 65 % 0.0 mm
14:12 22.9 °C 16.4 °C 1020.5 hPa WSW 17.7 km/h 17.7 km/h 67 % 0.0 mm
14:17 23.2 °C 16.0 °C 1020.5 hPa SW 3.2 km/h 17.7 km/h 64 % 0.0 mm
14:22 23.1 °C 15.4 °C 1020.5 hPa WSW 12.9 km/h 17.7 km/h 62 % 0.0 mm
14:32 23.3 °C 15.4 °C 1020.5 hPa WSW 6.4 km/h 19.3 km/h 61 % 0.0 mm
14:37 23.6 °C 15.4 °C 1020.5 hPa West 4.8 km/h 19.3 km/h 60 % 0.0 mm
14:42 23.4 °C 15.4 °C 1020.5 hPa West 8.0 km/h 17.7 km/h 61 % 0.0 mm
14:52 23.3 °C 15.4 °C 1020.5 hPa WNW 9.7 km/h 19.3 km/h 61 % 0.0 mm
14:57 23.7 °C 15.7 °C 1020.2 hPa WSW 12.9 km/h 19.3 km/h 61 % 0.0 mm
15:02 23.9 °C 15.4 °C 1020.5 hPa West 9.7 km/h 20.9 km/h 59 % 0.0 mm
15:07 24.1 °C 15.6 °C 1020.2 hPa West 17.7 km/h 20.9 km/h 59 % 0.0 mm
15:12 24.1 °C 15.3 °C 1020.5 hPa West 6.4 km/h 20.9 km/h 58 % 0.0 mm
15:17 24.3 °C 15.5 °C 1020.2 hPa WNW 8.0 km/h 20.9 km/h 58 % 0.0 mm
15:22 24.4 °C 15.1 °C 1020.2 hPa Calm   20.9 km/h 56 % 0.0 mm
15:27 24.8 °C 15.4 °C 1020.2 hPa WNW 11.3 km/h 19.3 km/h 56 % 0.0 mm
15:32 24.9 °C 15.5 °C 1020.2 hPa WSW 19.3 km/h 19.3 km/h 56 % 0.0 mm
15:42 24.0 °C 15.0 °C 1020.2 hPa WSW 6.4 km/h 19.3 km/h 57 % 0.0 mm
15:47 23.9 °C 15.1 °C 1019.9 hPa SSW 3.2 km/h 19.3 km/h 58 % 0.0 mm
15:52 24.1 °C 15.6 °C 1019.9 hPa WSW 4.8 km/h 19.3 km/h 59 % 0.0 mm
15:57 24.2 °C 15.1 °C 1019.9 hPa West 6.4 km/h 19.3 km/h 57 % 0.0 mm
16:02 24.2 °C 15.4 °C 1019.9 hPa West 11.3 km/h 19.3 km/h 58 % 0.0 mm
16:07 24.1 °C 14.5 °C 1019.9 hPa WNW 11.3 km/h 19.3 km/h 55 % 0.0 mm
16:12 24.1 °C 15.3 °C 1019.9 hPa West 20.9 km/h 27.4 km/h 58 % 0.0 mm
16:17 24.6 °C 15.8 °C 1019.9 hPa SW 9.7 km/h 27.4 km/h 58 % 0.0 mm
16:22 24.8 °C 16.5 °C 1019.9 hPa West 9.7 km/h 22.5 km/h 60 % 0.0 mm
16:32 24.7 °C 14.8 °C 1019.9 hPa WSW 16.1 km/h 22.5 km/h 54 % 0.0 mm
16:42 24.6 °C 14.4 °C 1019.9 hPa WNW 11.3 km/h 20.9 km/h 53 % 0.0 mm
16:47 24.6 °C 15.0 °C 1019.9 hPa West 4.8 km/h 22.5 km/h 55 % 0.0 mm
16:52 24.4 °C 14.5 °C 1019.9 hPa WNW 14.5 km/h 22.5 km/h 54 % 0.0 mm
16:57 24.3 °C 14.7 °C 1019.9 hPa WSW 11.3 km/h 20.9 km/h 55 % 0.0 mm
17:02 24.6 °C 14.7 °C 1019.9 hPa West 14.5 km/h 20.9 km/h 54 % 0.0 mm
17:12 25.1 °C 14.8 °C 1019.9 hPa WNW 9.7 km/h 25.7 km/h 53 % 0.0 mm
17:17 24.9 °C 14.7 °C 1019.9 hPa SW 6.4 km/h 25.7 km/h 53 % 0.0 mm
17:22 24.8 °C 14.6 °C 1019.9 hPa West 12.9 km/h 22.5 km/h 53 % 0.0 mm
17:27 24.5 °C 14.3 °C 1019.9 hPa WNW 14.5 km/h 17.7 km/h 53 % 0.0 mm
17:32 24.9 °C 14.4 °C 1019.9 hPa WSW 14.5 km/h 20.9 km/h 52 % 0.0 mm
17:42 24.7 °C 14.2 °C 1019.9 hPa SW 4.8 km/h 20.9 km/h 52 % 0.0 mm
17:47 24.7 °C 14.5 °C 1019.9 hPa WNW 11.3 km/h 19.3 km/h 53 % 0.0 mm
17:52 24.5 °C 14.3 °C 1019.5 hPa West 6.4 km/h 19.3 km/h 53 % 0.0 mm
17:57 24.5 °C 14.0 °C 1019.5 hPa WSW 12.9 km/h 19.3 km/h 52 % 0.0 mm
18:02 24.4 °C 14.2 °C 1019.5 hPa West 6.4 km/h 19.3 km/h 53 % 0.0 mm
18:07 24.6 °C 14.7 °C 1019.5 hPa NNW 4.8 km/h 19.3 km/h 54 % 0.0 mm
18:12 25.2 °C 14.9 °C 1019.5 hPa WSW 9.7 km/h 19.3 km/h 53 % 0.0 mm
18:17 25.1 °C 14.6 °C 1019.5 hPa SW 8.0 km/h 19.3 km/h 52 % 0.0 mm
18:22 25.0 °C 15.0 °C 1019.5 hPa SW 6.4 km/h 20.9 km/h 54 % 0.0 mm
18:32 24.6 °C 14.4 °C 1019.5 hPa West 6.4 km/h 20.9 km/h 53 % 0.0 mm
18:37 24.7 °C 14.5 °C 1019.2 hPa SSW 3.2 km/h 20.9 km/h 53 % 0.0 mm
18:42 24.8 °C 14.9 °C 1019.5 hPa WNW 14.5 km/h 20.9 km/h 54 % 0.0 mm
18:52 24.7 °C 14.8 °C 1019.5 hPa West 8.0 km/h 19.3 km/h 54 % 0.0 mm
19:02 25.1 °C 14.6 °C 1019.5 hPa West 9.7 km/h 19.3 km/h 52 % 0.0 mm
19:12 24.6 °C 14.7 °C 1019.5 hPa West 8.0 km/h 22.5 km/h 54 % 0.0 mm
19:17 24.7 °C 14.8 °C 1019.5 hPa West 11.3 km/h 22.5 km/h 54 % 0.0 mm
19:22 24.6 °C 14.7 °C 1019.2 hPa West 6.4 km/h 22.5 km/h 54 % 0.0 mm
19:32 24.6 °C 14.7 °C 1019.5 hPa WSW 6.4 km/h 24.1 km/h 54 % 0.0 mm
19:37 24.6 °C 14.7 °C 1019.5 hPa WNW 9.7 km/h 24.1 km/h 54 % 0.0 mm
19:42 24.6 °C 14.7 °C 1019.5 hPa West 14.5 km/h 24.1 km/h 54 % 0.0 mm
19:47 24.3 °C 14.4 °C 1019.5 hPa WNW 11.3 km/h 19.3 km/h 54 % 0.0 mm
19:52 24.1 °C 14.5 °C 1019.5 hPa NNW 6.4 km/h 17.7 km/h 55 % 0.0 mm
20:02 23.6 °C 14.6 °C 1019.5 hPa WSW 12.9 km/h 17.7 km/h 57 % 0.0 mm
20:12 23.3 °C 14.6 °C 1019.5 hPa WSW 6.4 km/h 14.5 km/h 58 % 0.0 mm
20:17 23.6 °C 14.6 °C 1019.5 hPa West 3.2 km/h 14.5 km/h 57 % 0.0 mm
20:22 23.7 °C 14.4 °C 1019.5 hPa West 6.4 km/h 17.7 km/h 56 % 0.0 mm
20:32 23.8 °C 14.5 °C 1019.5 hPa West 12.9 km/h 17.7 km/h 56 % 0.0 mm
20:37 23.6 °C 14.9 °C 1019.5 hPa WSW 12.9 km/h 17.7 km/h 58 % 0.0 mm
20:42 23.4 °C 14.9 °C 1019.5 hPa West 3.2 km/h 17.7 km/h 59 % 0.0 mm
20:47 23.3 °C 14.8 °C 1019.5 hPa WSW 3.2 km/h 16.1 km/h 59 % 0.0 mm
20:52 23.1 °C 14.9 °C 1019.5 hPa WSW 1.6 km/h 16.1 km/h 60 % 0.0 mm
20:57 22.8 °C 14.6 °C 1019.5 hPa SW 6.4 km/h 14.5 km/h 60 % 0.0 mm
21:02 22.6 °C 14.7 °C 1019.5 hPa SW 1.6 km/h 9.7 km/h 61 % 0.0 mm
21:07 22.4 °C 15.0 °C 1019.5 hPa West 3.2 km/h 9.7 km/h 63 % 0.0 mm
21:12 22.2 °C 15.1 °C 1019.5 hPa WSW 1.6 km/h 9.7 km/h 64 % 0.0 mm
21:17 22.0 °C 14.9 °C 1019.5 hPa West 1.6 km/h 6.4 km/h 64 % 0.0 mm
21:22 21.9 °C 15.0 °C 1019.5 hPa Calm   4.8 km/h 65 % 0.0 mm
21:32 21.6 °C 15.0 °C 1019.5 hPa Calm   3.2 km/h 66 % 0.0 mm
21:37 21.4 °C 15.0 °C 1019.9 hPa Calm   3.2 km/h 67 % 0.0 mm
21:42 21.2 °C 14.8 °C 1019.9 hPa Calm   8.0 km/h 67 % 0.0 mm
21:47 21.0 °C 14.9 °C 1019.9 hPa Calm   8.0 km/h 68 % 0.0 mm
21:52 21.0 °C 14.9 °C 1019.9 hPa Calm   8.0 km/h 68 % 0.0 mm
21:57 20.9 °C 14.8 °C 1019.9 hPa Calm   6.4 km/h 68 % 0.0 mm
22:02 20.9 °C 15.0 °C 1019.9 hPa WNW 3.2 km/h 4.8 km/h 69 % 0.0 mm
22:12 20.7 °C 15.0 °C 1019.9 hPa Calm   4.8 km/h 70 % 0.0 mm
22:17 20.6 °C 15.2 °C 1019.9 hPa Calm   4.8 km/h 71 % 0.0 mm
22:22 20.5 °C 15.1 °C 1019.9 hPa Calm   4.8 km/h 71 % 0.0 mm
22:32 20.4 °C 15.0 °C 1020.2 hPa West 1.6 km/h 1.6 km/h 71 % 0.0 mm
22:37 20.4 °C 15.2 °C 1020.2 hPa Calm   3.2 km/h 72 % 0.0 mm
22:42 20.3 °C 15.3 °C 1020.2 hPa Calm   3.2 km/h 73 % 0.0 mm
22:47 20.2 °C 15.2 °C 1020.2 hPa Calm   3.2 km/h 73 % 0.0 mm
22:52 20.2 °C 15.4 °C 1020.5 hPa Calm   1.6 km/h 74 % 0.0 mm
22:57 20.2 °C 15.2 °C 1020.2 hPa Calm   1.6 km/h 73 % 0.0 mm
23:02 20.1 °C 15.3 °C 1020.5 hPa SW 1.6 km/h 1.6 km/h 74 % 0.0 mm
23:07 20.1 °C 15.3 °C 1020.5 hPa Calm   3.2 km/h 74 % 0.0 mm
23:12 20.1 °C 15.3 °C 1020.5 hPa Calm   3.2 km/h 74 % 0.0 mm
23:17 20.1 °C 15.3 °C 1020.2 hPa SW 3.2 km/h 3.2 km/h 74 % 0.0 mm
23:22 20.1 °C 15.5 °C 1020.2 hPa Calm   3.2 km/h 75 % 0.0 mm
23:32 20.1 °C 15.7 °C 1020.5 hPa WNW 1.6 km/h 3.2 km/h 76 % 0.0 mm
23:37 20.1 °C 15.5 °C 1020.5 hPa West 3.2 km/h 8.0 km/h 75 % 0.0 mm
23:42 20.2 °C 15.4 °C 1020.5 hPa West 1.6 km/h 12.9 km/h 74 % 0.0 mm
23:47 20.2 °C 15.4 °C 1020.5 hPa WNW 6.4 km/h 12.9 km/h 74 % 0.0 mm
23:52 20.2 °C 15.6 °C 1020.5 hPa WSW 4.8 km/h 12.9 km/h 75 % 0.0 mm
23:57 20.2 °C 15.6 °C 1020.5 hPa WSW 3.2 km/h 9.7 km/h 75 % 0.0 mm
Meteo18
Compliments of Weather Underground - 4 mb

Script developed by  Jim McMurry - jmcmurry@mwt.net Adapted for the template by  Wim van der Kuil - Leuven-Template.eu

You find our weather info also at:

European Weather Network

Weather Underground

Equipment we use:

Weather-station
Davis Vue

Weather-program
Meteohub

Weather-server
Raspberry PI 2 B+

Provider
1 and 1

Davis Vue

Meteohub

Raspberry PI 2 B+

1 and 1